• In Deutschland
  • Länderverzeichnis
  • Für 7 Tage
  • Wassertemperatur
  • Satellitenkarten
  • Wetterkarte
  • Widgets
  • user-avatar
    Anmelden

    Stündliche Wetter Armak

    Heute, 16 Juli, Montag

    Zeit Temperatur Niederschläge Wind Luftdruck Luftfeuchtigkeit
    00:00 +16°C° 0 mm 1 m/S 675 mmHg 92%
    01:00 +15°C° 0 mm 1 m/S 675 mmHg 92%
    02:00 +15°C° 0,1 mm 1 m/S 675 mmHg 92%
    03:00 +15°C° 0,1 mm 1 m/S 675 mmHg 92%
    04:00 +15°C° 0,1 mm 1 m/S 675 mmHg 92%
    05:00 +16°C° 0,1 mm 1 m/S 675 mmHg 91%
    06:00 +18°C° 0,1 mm 1 m/S 675 mmHg 89%
    07:00 +20°C° 0 mm 1 m/S 675 mmHg 84%
    08:00 +21°C° 0,3 mm 1 m/S 676 mmHg 80%
    09:00 +22°C° 0,3 mm 1 m/S 676 mmHg 75%
    10:00 +23°C° 0,3 mm 1 m/S 676 mmHg 71%
    11:00 +24°C° 0,7 mm 2 m/S 676 mmHg 70%
    12:00 +24°C° 0,7 mm 2 m/S 676 mmHg 69%
    13:00 +25°C° 0 mm 2 m/S 676 mmHg 67%
    14:00 +24°C° 0,5 mm 2 m/S 676 mmHg 67%
    15:00 +24°C° 0,5 mm 2 m/S 676 mmHg 68%
    16:00 +24°C° 0,5 mm 3 m/S 675 mmHg 68%
    17:00 +23°C° 0,3 mm 2 m/S 675 mmHg 75%
    18:00 +23°C° 0,3 mm 1 m/S 675 mmHg 78%
    19:00 +22°C° 0,3 mm 1 m/S 675 mmHg 80%
    20:00 +20°C° 0 mm 1 m/S 675 mmHg 83%
    21:00 +18°C° 0 mm 2 m/S 675 mmHg 86%
    22:00 +16°C° 0 mm 2 m/S 675 mmHg 89%
    23:00 +16°C° 0 mm 2 m/S 675 mmHg 89%

    Morgen, 17 Juli, Dienstag

    Zeit Temperatur Niederschläge Wind Luftdruck Luftfeuchtigkeit
    00:00 +16°C° 0 mm 2 m/S 675 mmHg 90%
    01:00 +15°C° 0 mm 2 m/S 675 mmHg 91%
    02:00 +15°C° 0 mm 2 m/S 675 mmHg 91%
    03:00 +15°C° 0 mm 2 m/S 675 mmHg 92%
    04:00 +15°C° 0 mm 2 m/S 675 mmHg 92%
    05:00 +17°C° 0 mm 2 m/S 676 mmHg 89%
    06:00 +18°C° 0 mm 2 m/S 676 mmHg 85%
    07:00 +19°C° 0 mm 2 m/S 677 mmHg 81%
    08:00 +21°C° 0,2 mm 2 m/S 677 mmHg 76%
    09:00 +23°C° 0,2 mm 2 m/S 677 mmHg 71%
    10:00 +24°C° 0,2 mm 2 m/S 677 mmHg 66%
    11:00 +24°C° 0,7 mm 2 m/S 677 mmHg 67%
    12:00 +25°C° 0,7 mm 2 m/S 677 mmHg 68%
    13:00 +25°C° 0,7 mm 3 m/S 677 mmHg 69%
    14:00 +25°C° 0,8 mm 2 m/S 676 mmHg 69%
    15:00 +25°C° 0,8 mm 2 m/S 676 mmHg 68%
    16:00 +25°C° 0,8 mm 2 m/S 676 mmHg 68%
    17:00 +24°C° 0,3 mm 2 m/S 676 mmHg 71%
    18:00 +23°C° 0,3 mm 2 m/S 676 mmHg 73%
    19:00 +21°C° 0,3 mm 2 m/S 676 mmHg 76%
    20:00 +20°C° 0 mm 2 m/S 675 mmHg 78%
    21:00 +18°C° 0 mm 2 m/S 675 mmHg 81%
    22:00 +17°C° 0 mm 2 m/S 675 mmHg 83%
    23:00 +16°C° 0 mm 2 m/S 675 mmHg 83%

    übermorgen, 18 Juli, Mittwoch

    Zeit Temperatur Niederschläge Wind Luftdruck Luftfeuchtigkeit
    00:00 +16°C° 0 mm 2 m/S 675 mmHg 84%
    01:00 +15°C° 0 mm 2 m/S 675 mmHg 84%
    02:00 +15°C° 0,1 mm 2 m/S 675 mmHg 85%
    03:00 +15°C° 0,1 mm 2 m/S 675 mmHg 86%
    04:00 +15°C° 0,1 mm 2 m/S 675 mmHg 87%
    05:00 +16°C° 0,1 mm 1 m/S 675 mmHg 83%
    06:00 +19°C° 0,1 mm 1 m/S 676 mmHg 79%
    07:00 +21°C° 0,1 mm 1 m/S 676 mmHg 75%
    08:00 +22°C° 0 mm 1 m/S 677 mmHg 68%
    09:00 +23°C° 0 mm 1 m/S 677 mmHg 62%
    10:00 +25°C° 0 mm 1 m/S 677 mmHg 55%
    11:00 +26°C° 0,1 mm 2 m/S 677 mmHg 53%
    12:00 +27°C° 0,1 mm 2 m/S 677 mmHg 51%
    13:00 +28°C° 0,1 mm 2 m/S 677 mmHg 48%
    14:00 +28°C° 0,2 mm 2 m/S 677 mmHg 50%
    15:00 +28°C° 0,2 mm 2 m/S 676 mmHg 52%
    16:00 +27°C° 0,2 mm 2 m/S 676 mmHg 55%
    17:00 +26°C° 0,4 mm 1 m/S 676 mmHg 62%
    18:00 +25°C° 0,4 mm 1 m/S 676 mmHg 69%
    19:00 +21°C° 0,4 mm 0 m/S 676 mmHg 77%
    20:00 +22°C° 0 mm 1 m/S 676 mmHg 79%
    21:00 +20°C° 0 mm 1 m/S 675 mmHg 82%
    22:00 +19°C° 0 mm 1 m/S 675 mmHg 85%
    23:00 +19°C° 0,2 mm 1 m/S 675 mmHg 86%

    19 Juli, Donnerstag

    Zeit Temperatur Niederschläge Wind Luftdruck Luftfeuchtigkeit
    00:00 +18°C° 0,2 mm 1 m/S 675 mmHg 87%
    01:00 +18°C° 0,2 mm 1 m/S 675 mmHg 89%
    02:00 +16°C° 0,3 mm 1 m/S 675 mmHg 89%
    03:00 +16°C° 0,3 mm 1 m/S 675 mmHg 90%
    04:00 +16°C° 0,3 mm 1 m/S 675 mmHg 90%
    05:00 +18°C° 0,1 mm 1 m/S 675 mmHg 87%
    06:00 +18°C° 0,1 mm 0 m/S 676 mmHg 84%
    07:00 +19°C° 0,1 mm 0 m/S 676 mmHg 81%
    08:00 +23°C° 0,1 mm 1 m/S 676 mmHg 73%
    09:00 +25°C° 0,1 mm 1 m/S 676 mmHg 65%
    10:00 +27°C° 0,1 mm 1 m/S 677 mmHg 57%
    11:00 +28°C° 0,1 mm 2 m/S 676 mmHg 54%
    12:00 +29°C° 0,1 mm 2 m/S 676 mmHg 50%
    13:00 +30°C° 0,1 mm 2 m/S 676 mmHg 47%
    14:00 +29°C° 0,2 mm 2 m/S 675 mmHg 52%
    15:00 +28°C° 0,2 mm 2 m/S 675 mmHg 57%
    16:00 +28°C° 0,2 mm 2 m/S 675 mmHg 62%
    17:00 +26°C° 1,4 mm 2 m/S 674 mmHg 70%
    18:00 +24°C° 1,4 mm 1 m/S 674 mmHg 77%
    19:00 +22°C° 1,4 mm 1 m/S 673 mmHg 85%
    20:00 +22°C° 1,5 mm 1 m/S 673 mmHg 88%
    21:00 +21°C° 1,5 mm 1 m/S 672 mmHg 90%
    22:00 +19°C° 1,5 mm 2 m/S 672 mmHg 93%
    23:00 +18°C° 1,8 mm 2 m/S 672 mmHg 94%

    20 Juli, Freitag

    Zeit Temperatur Niederschläge Wind Luftdruck Luftfeuchtigkeit
    00:00 +18°C° 1,8 mm 2 m/S 672 mmHg 95%
    01:00 +18°C° 1,8 mm 2 m/S 671 mmHg 96%
    02:00 +18°C° 0,5 mm 2 m/S 671 mmHg 96%
    03:00 +18°C° 0,5 mm 1 m/S 671 mmHg 96%
    04:00 +18°C° 0,5 mm 1 m/S 671 mmHg 96%
    05:00 +18°C° 0,3 mm 1 m/S 671 mmHg 95%
    06:00 +19°C° 0,3 mm 1 m/S 672 mmHg 94%
    07:00 +20°C° 0,3 mm 1 m/S 672 mmHg 93%
    08:00 +20°C° 0,4 mm 1 m/S 673 mmHg 87%
    09:00 +20°C° 0,4 mm 2 m/S 673 mmHg 82%
    10:00 +21°C° 0,4 mm 2 m/S 673 mmHg 76%
    11:00 +23°C° 0 mm 2 m/S 673 mmHg 71%
    12:00 +24°C° 0 mm 3 m/S 673 mmHg 66%
    13:00 +25°C° 0 mm 3 m/S 673 mmHg 61%
    14:00 +25°C° 0,3 mm 2 m/S 673 mmHg 61%
    15:00 +25°C° 0,3 mm 2 m/S 673 mmHg 61%
    16:00 +25°C° 0,3 mm 2 m/S 673 mmHg 61%
    17:00 +23°C° 0,8 mm 2 m/S 673 mmHg 68%
    18:00 +21°C° 0,8 mm 2 m/S 672 mmHg 75%
    19:00 +19°C° 0,8 mm 2 m/S 672 mmHg 82%
    20:00 +17°C° 0,4 mm 2 m/S 672 mmHg 86%
    21:00 +16°C° 0,4 mm 2 m/S 672 mmHg 90%
    22:00 +14°C° 0,4 mm 2 m/S 672 mmHg 94%
    23:00 +13°C° 0,2 mm 2 m/S 672 mmHg 94%

    21 Juli, Samstag

    Zeit Temperatur Niederschläge Wind Luftdruck Luftfeuchtigkeit
    00:00 +13°C° 0,2 mm 2 m/S 672 mmHg 95%
    01:00 +12°C° 0,2 mm 1 m/S 672 mmHg 95%
    02:00 +12°C° 0 mm 1 m/S 672 mmHg 94%
    03:00 +12°C° 0 mm 1 m/S 672 mmHg 94%
    04:00 +12°C° 0 mm 1 m/S 672 mmHg 93%
    05:00 +13°C° 0 mm 1 m/S 673 mmHg 90%
    06:00 +14°C° 0 mm 1 m/S 673 mmHg 87%
    07:00 +15°C° 0 mm 1 m/S 674 mmHg 84%
    08:00 +16°C° 0,1 mm 2 m/S 674 mmHg 78%
    09:00 +17°C° 0,1 mm 3 m/S 675 mmHg 73%
    10:00 +18°C° 0,1 mm 4 m/S 675 mmHg 67%
    11:00 +18°C° 0,1 mm 4 m/S 676 mmHg 66%
    12:00 +19°C° 0,1 mm 5 m/S 676 mmHg 65%
    13:00 +19°C° 0,1 mm 5 m/S 676 mmHg 65%
    14:00 +19°C° 0,1 mm 5 m/S 676 mmHg 64%
    15:00 +19°C° 0,1 mm 4 m/S 677 mmHg 63%
    16:00 +19°C° 0,1 mm 4 m/S 677 mmHg 63%
    17:00 +18°C° 0 mm 3 m/S 677 mmHg 65%
    18:00 +18°C° 0 mm 2 m/S 678 mmHg 67%
    19:00 +19°C° 0 mm 1 m/S 678 mmHg 69%
    20:00 +16°C° 0 mm 1 m/S 678 mmHg 74%
    21:00 +14°C° 0 mm 1 m/S 678 mmHg 79%
    22:00 +13°C° 0 mm 1 m/S 678 mmHg 84%
    23:00 +12°C° 0 mm 1 m/S 678 mmHg 85%
    Mehr zeigen